IRIDIUM 33 DEB, 34525

Orbit data source: Space-Track

IRIDIUM 33 DEB, 34525 is space debris in LEO originally from a launch on Sun, 14 Sep 1997 UTC launched from the Tyuratam Missile And Space Complex (TTMTR). The debris from Iridium 33, an American commercial communications satellite, has been tracked extensively since its accidental collision with the defunct Russian satellite Cosmos 2251 in 2009. This event, occurring at high speed in low Earth orbit (LEO), generated thousands of pieces of space debris, significantly increasing the risk of further collisions. The Iridium 33 debris cloud has impacted space traffic management and orbital debris mitigation strategies, making it a subject of ongoing study in space situational awareness.

Loading next visibility...
Identifier
34525, 1997-051HS
Orbit
LEO
Country
Flag of USUS
Related business
Manufacturer
Unknown
Mission
Spacecraft
Bus & Motor
Unknown
Mass
Unknown
Launch date (UTC)
1997-09-14 (29 years ago)
Launch vehicle
Unknown
Launch site
Tyuratam Missile And Space Complex (TTMTR)
Object type
Payload
Rocket body
Debris
Shape & HBR
Unknown shape, 0.1 m
Radar Cross Section
Medium (>0.1 m² and <1 m²)

Expand to show TLE details & history
Last TLE update: 2 days ago

TLE from 2 days ago
0 IRIDIUM 33 DEB
1 34525U 97051HS  26264.50775167  .00000543  00000-0  15470-3 0  9991
2 34525  86.3679 286.1041 0002909 208.7609 278.5911 14.43512638921668
Epoch: 2026-09-21T12:11Z
TLE epoch observation values (Epoch: 2026-09-21T12:11:09.744Z)
Latitude
52.62963°
Longitude
-81.81513°
Altitude
755.266 km
Speed
7.482 km/s
True Right ascension
06h 45m 26s
True Declination
52° 27' 49"
Sunlit
Object was in daylight at epoch
Visualization orbit readout
Latitude
Unknown
Longitude
Unknown
Altitude
Unknown
Speed
Unknown
Apparent Right ascension
Unknown
Apparent Declination
Unknown
Sunlit
N/A
Visualization observer readout
Local Sidereal Time
13:43:22
Azimuth
Unknown
Elevation
Unknown
Doppler factor
Unknown
Orbital elements
Apogee altitude
745.94 km
Perigee altitude
741.796 km
Semi-major axis
7,122.005 km
Eccentricity
0.00029
Inclination
86.3679°
RAAN
286.1041°
Arg. of periapsis
208.7609°
True anomaly
278.55814°
Mean anomaly
278.5911°
Eccentric anomaly
278.57462°
Mean motion
3.6111 °/min
Orbital period
99.69 mins
BSTAR
0.0001547

Documentation

Showing up to 5 results
|